TimeCST,TemperatureF,Dew PointF,Humidity,Sea Level PressureIn,VisibilityMPH,Wind Direction,Wind SpeedMPH,Gust SpeedMPH,PrecipitationIn,Events,Conditions,WindDirDegrees,DateUTC
12:53 AM,42.1,28.9,60,30.06,10.0,ESE,5.8,-,N/A,,Clear,120,2013-03-08 06:53:00
1:53 AM,41.0,28.9,62,30.06,10.0,ESE,6.9,-,N/A,,Clear,120,2013-03-08 07:53:00
2:53 AM,39.0,28.9,67,30.05,10.0,SE,8.1,-,N/A,,Clear,130,2013-03-08 08:53:00
3:53 AM,39.9,30.0,68,30.03,10.0,SE,8.1,-,N/A,,Clear,130,2013-03-08 09:53:00
4:53 AM,41.0,30.0,65,30.04,10.0,ESE,8.1,-,N/A,,Clear,120,2013-03-08 10:53:00
5:53 AM,39.9,30.0,68,30.04,10.0,SE,8.1,-,N/A,,Clear,140,2013-03-08 11:53:00
6:53 AM,39.9,30.0,68,30.04,10.0,SE,8.1,-,N/A,,Clear,140,2013-03-08 12:53:00
7:53 AM,46.0,32.0,58,30.02,10.0,SSE,13.8,-,N/A,,Clear,150,2013-03-08 13:53:00
8:53 AM,51.1,34.0,52,30.03,10.0,South,17.3,25.3,N/A,,Clear,170,2013-03-08 14:53:00
9:53 AM,55.0,36.0,49,30.01,10.0,South,17.3,-,N/A,,Clear,170,2013-03-08 15:53:00
10:53 AM,57.0,39.0,51,30.04,10.0,South,15.0,27.6,N/A,,Clear,180,2013-03-08 16:53:00
11:53 AM,59.0,42.1,53,30.02,10.0,South,18.4,24.2,N/A,,Partly Cloudy,170,2013-03-08 17:53:00
12:53 PM,62.1,44.1,52,29.99,10.0,SSE,19.6,-,N/A,,Partly Cloudy,160,2013-03-08 18:53:00
1:53 PM,63.0,45.0,52,29.95,10.0,SSE,20.7,-,N/A,,Partly Cloudy,160,2013-03-08 19:53:00
2:53 PM,66.0,46.9,50,29.91,10.0,South,19.6,27.6,N/A,,Clear,170,2013-03-08 20:53:00
3:53 PM,61.0,46.0,58,29.91,10.0,SSE,18.4,-,N/A,,Overcast,150,2013-03-08 21:53:00
4:53 PM,61.0,46.0,58,29.89,10.0,SSE,16.1,25.3,N/A,,Overcast,150,2013-03-08 22:53:00
5:53 PM,60.1,46.9,62,29.90,10.0,SSE,20.7,29.9,N/A,,Overcast,160,2013-03-08 23:53:00
6:53 PM,57.0,46.0,67,29.89,10.0,SSE,18.4,24.2,N/A,,Overcast,150,2013-03-09 00:53:00
7:53 PM,54.0,45.0,72,29.90,10.0,SSE,18.4,26.5,N/A,,Overcast,150,2013-03-09 01:53:00
8:53 PM,53.1,45.0,74,29.88,10.0,SSE,21.9,27.6,N/A,,Overcast,150,2013-03-09 02:53:00
9:53 PM,54.0,45.0,72,29.87,10.0,SSE,18.4,26.5,N/A,,Overcast,160,2013-03-09 03:53:00
10:53 PM,54.0,46.0,75,29.84,9.0,SSE,19.6,29.9,N/A,,Overcast,160,2013-03-09 04:53:00
11:53 PM,55.0,45.0,69,29.84,10.0,SSE,24.2,31.1,N/A,,Overcast,160,2013-03-09 05:53:00